TimeEST,TemperatureF,Dew PointF,Humidity,Sea Level PressureIn,VisibilityMPH,Wind Direction,Wind SpeedMPH,Gust SpeedMPH,PrecipitationIn,Events,Conditions,WindDirDegrees,DateUTC
12:15 AM,26.6,24.8,93,29.81,3.0,SSW,10.4,-,N/A,Rain,Freezing Rain,210,2013-02-01 05:15:00
12:35 AM,26.6,24.8,93,29.81,2.0,SW,5.8,-,0.02,Snow,Light Snow,230,2013-02-01 05:35:00
12:55 AM,26.6,24.8,93,29.80,1.0,WSW,6.9,-,0.34,Snow,Snow,240,2013-02-01 05:55:00
1:15 AM,26.6,24.8,93,29.80,1.0,West,11.5,-,0.37,Snow,Heavy Snow,260,2013-02-01 06:15:00
1:35 AM,26.6,23.0,86,29.79,0.8,West,12.7,23.0,1.53,Snow,Light Snow,280,2013-02-01 06:35:00
1:55 AM,24.8,23.0,93,29.79,1.5,West,9.2,-,1.72,Snow,Light Snow,260,2013-02-01 06:55:00
2:15 AM,24.8,23.0,93,29.79,1.5,West,6.9,-,0.06,Snow,Light Snow,260,2013-02-01 07:15:00
2:35 AM,23.0,21.2,93,29.82,0.2,NW,23.0,36.8,0.79,Snow,Snow,320,2013-02-01 07:35:00
2:55 AM,21.2,19.4,93,29.85,1.2,NW,12.7,20.7,1.10,Snow,Light Snow,310,2013-02-01 07:55:00
3:15 AM,21.2,19.4,93,29.87,1.2,WNW,6.9,-,0.14,Snow,Light Snow,290,2013-02-01 08:15:00
3:55 AM,21.2,15.8,80,29.91,1.5,West,16.1,27.6,0.50,Snow,Light Snow,280,2013-02-01 08:55:00
4:15 AM,19.4,14.0,80,29.92,1.5,West,21.9,32.2,0.07,Snow,Light Snow,270,2013-02-01 09:15:00
4:35 AM,19.4,14.0,80,29.94,10.0,West,12.7,21.9,0.08,Snow,Light Snow,280,2013-02-01 09:35:00
4:55 AM,19.4,15.8,86,29.94,0.8,West,5.8,17.3,0.80,Snow,Light Snow,280,2013-02-01 09:55:00
5:15 AM,17.6,12.2,79,29.97,1.2,WNW,19.6,32.2,0.21,Snow,Light Snow,290,2013-02-01 10:15:00
5:55 AM,15.8,10.4,79,30.00,4.0,West,15.0,19.6,0.34,Snow,Light Snow,260,2013-02-01 10:55:00
6:15 AM,14.0,8.6,79,30.02,2.5,West,13.8,25.3,0.03,Snow,Light Snow,270,2013-02-01 11:15:00
6:35 AM,14.0,8.6,79,30.05,4.0,West,13.8,23.0,0.05,Snow,Light Snow,270,2013-02-01 11:35:00
6:55 AM,14.0,5.0,67,30.07,6.0,West,17.3,25.3,0.05,Snow,Light Snow,260,2013-02-01 11:55:00
7:15 AM,12.2,3.2,67,30.09,8.0,West,12.7,19.6,N/A,,Mostly Cloudy,270,2013-02-01 12:15:00
7:35 AM,12.2,3.2,67,30.10,5.0,West,19.6,28.8,N/A,,Haze,270,2013-02-01 12:35:00
7:55 AM,12.2,3.2,67,30.12,7.0,West,15.0,25.3,N/A,,Mostly Cloudy,280,2013-02-01 12:55:00
8:15 AM,12.2,3.2,67,30.13,9.0,West,15.0,25.3,N/A,,Mostly Cloudy,260,2013-02-01 13:15:00
8:35 AM,12.2,3.2,67,30.15,9.0,West,5.8,-,N/A,Snow,Light Snow,280,2013-02-01 13:35:00
8:55 AM,12.2,5.0,73,30.17,2.0,WNW,11.5,19.6,0.01,Snow,Light Snow,290,2013-02-01 13:55:00
9:15 AM,10.4,5.0,79,30.17,1.2,WSW,13.8,18.4,0.11,Snow,Light Snow,250,2013-02-01 14:15:00
9:35 AM,10.4,3.2,73,30.18,3.0,West,13.8,21.9,0.12,,Haze,280,2013-02-01 14:35:00
9:55 AM,10.4,3.2,73,30.20,1.0,West,12.7,-,0.14,Snow,Light Snow,280,2013-02-01 14:55:00
10:15 AM,10.4,5.0,79,30.21,1.0,WSW,11.5,20.7,0.04,Snow,Light Snow,250,2013-02-01 15:15:00
10:35 AM,10.4,5.0,79,30.22,1.8,West,10.4,17.3,0.05,Snow,Light Snow,260,2013-02-01 15:35:00
10:55 AM,10.4,3.2,73,30.23,3.0,WSW,13.8,19.6,0.06,,Haze,250,2013-02-01 15:55:00
11:15 AM,12.2,3.2,67,30.23,8.0,WSW,10.4,17.3,N/A,Snow,Light Snow,250,2013-02-01 16:15:00
11:35 AM,12.2,5.0,73,30.24,5.0,West,8.1,-,N/A,Snow,Light Snow,260,2013-02-01 16:35:00
12:15 PM,12.2,5.0,73,30.24,1.2,SW,13.8,-,0.01,Snow,Light Snow,230,2013-02-01 17:15:00
12:35 PM,12.2,5.0,73,30.24,3.0,SW,10.4,-,0.02,,Haze,220,2013-02-01 17:35:00
12:55 PM,12.2,3.2,67,30.25,5.0,West,15.0,-,0.02,Snow,Light Snow,260,2013-02-01 17:55:00
1:15 PM,12.2,3.2,67,30.25,7.0,SW,13.8,-,N/A,,Partly Cloudy,230,2013-02-01 18:15:00
1:35 PM,14.0,3.2,62,30.25,10.0,WSW,10.4,17.3,N/A,,Partly Cloudy,240,2013-02-01 18:35:00
1:55 PM,12.2,5.0,73,30.25,2.5,SW,15.0,-,N/A,Snow,Light Snow,230,2013-02-01 18:55:00
2:15 PM,14.0,5.0,67,30.25,3.0,SW,12.7,-,N/A,Snow,Light Snow,230,2013-02-01 19:15:00
2:35 PM,14.0,5.0,67,30.26,5.0,SW,12.7,17.3,N/A,,Haze,220,2013-02-01 19:35:00
2:55 PM,14.0,5.0,67,30.26,5.0,SW,12.7,16.1,N/A,,Haze,220,2013-02-01 19:55:00
3:15 PM,14.0,3.2,62,30.26,7.0,WSW,13.8,20.7,N/A,Snow,Light Snow,240,2013-02-01 20:15:00
3:35 PM,14.0,3.2,62,30.26,10.0,WSW,9.2,-,N/A,,Mostly Cloudy,250,2013-02-01 20:35:00
3:55 PM,14.0,3.2,62,30.26,9.0,WSW,13.8,19.6,N/A,,Mostly Cloudy,240,2013-02-01 20:55:00
4:35 PM,14.0,3.2,62,30.27,10.0,SW,13.8,-,N/A,,Overcast,220,2013-02-01 21:35:00
4:55 PM,14.0,3.2,62,30.27,9.0,WSW,15.0,-,N/A,Snow,Light Snow,240,2013-02-01 21:55:00
5:15 PM,14.0,5.0,67,30.28,10.0,WSW,10.4,-,N/A,,Overcast,240,2013-02-01 22:15:00
5:35 PM,14.0,3.2,62,30.28,10.0,WSW,9.2,-,N/A,,Overcast,250,2013-02-01 22:35:00
5:55 PM,14.0,3.2,62,30.28,10.0,SW,10.4,-,N/A,,Overcast,230,2013-02-01 22:55:00
6:15 PM,14.0,1.4,57,30.28,10.0,SW,5.8,-,N/A,,Overcast,230,2013-02-01 23:15:00
6:35 PM,14.0,3.2,62,30.29,10.0,SW,11.5,-,N/A,,Overcast,230,2013-02-01 23:35:00
6:55 PM,14.0,3.2,62,30.30,10.0,SW,12.7,-,N/A,,Overcast,230,2013-02-01 23:55:00
7:15 PM,12.2,3.2,67,30.30,10.0,WSW,8.1,-,N/A,,Scattered Clouds,250,2013-02-02 00:15:00
7:55 PM,12.2,3.2,67,30.31,10.0,WSW,4.6,-,N/A,,Clear,240,2013-02-02 00:55:00
8:15 PM,12.2,3.2,67,30.31,10.0,Calm,Calm,-,N/A,,Clear,0,2013-02-02 01:15:00
8:35 PM,10.4,3.2,73,30.31,10.0,Calm,Calm,-,N/A,,Clear,0,2013-02-02 01:35:00
8:55 PM,10.4,3.2,73,30.31,10.0,Calm,Calm,-,N/A,,Clear,0,2013-02-02 01:55:00
9:15 PM,10.4,3.2,73,30.31,10.0,SSW,4.6,-,N/A,,Clear,200,2013-02-02 02:15:00
9:35 PM,8.6,3.2,79,30.31,10.0,Calm,Calm,-,N/A,,Clear,0,2013-02-02 02:35:00
9:55 PM,8.6,3.2,79,30.31,10.0,Calm,Calm,-,N/A,,Clear,0,2013-02-02 02:55:00
10:15 PM,8.6,1.4,73,30.31,10.0,Calm,Calm,-,N/A,,Clear,0,2013-02-02 03:15:00
10:35 PM,8.6,1.4,73,30.31,10.0,Calm,Calm,-,N/A,,Clear,0,2013-02-02 03:35:00
10:55 PM,8.6,1.4,73,30.31,10.0,Calm,Calm,-,N/A,,Clear,0,2013-02-02 03:55:00
11:15 PM,8.6,3.2,79,30.30,10.0,Calm,Calm,-,N/A,,Clear,0,2013-02-02 04:15:00
11:35 PM,8.6,1.4,73,30.30,10.0,Calm,Calm,-,N/A,,Clear,0,2013-02-02 04:35:00
11:55 PM,8.6,1.4,73,30.30,10.0,Calm,Calm,-,N/A,,Clear,0,2013-02-02 04:55:00